Regional Weather Roundup
Issued by NWS

Home | Current Version | Previous Version | Graphics & Text | Print | Product List | Glossary On
Versions: 1 2 3 4 5 6 7 8 9 10 11 12 13 14 15 16 17 18 19 20 21 22 23 24 25 26 27 28 29 30 31 32 33 34 35 36 37 38 39 40 41 42 43 44 45 46 47 48 49 50
000
ASUS43 KMPX 251501
RWRMN
WEATHER ROUNDUP FOR MINNESOTA
NATIONAL WEATHER SERVICE TWIN CITIES/CHANHASSEN MN
900 AM CST SUN JAN 25 2015


NOTE: "FAIR" INDICATES FEW OR NO CLOUDS BELOW 12,000 FEET WITH NO
SIGNIFICANT WEATHER AND/OR OBSTRUCTIONS TO VISIBILITY. N/A MEANS
CURRENT SKY AND/OR WEATHER CONDITIONS ARE NOT AVAILABLE.

MNZ060>063-068>070-251600-
   Twin Cities Metro

CITY           SKY/WX    TMP DP  RH WIND       PRES   REMARKS
TWIN CITIES    PTSUNNY   21  11  65 NE15      29.97R WCI   8
ST PAUL        MOSUNNY   20  11  68 NE14      29.99R WCI   7
CRYSTAL        PTSUNNY   22  12  65 NE12      29.97R WCI  10
BLAINE         PTSUNNY   21  12  68 NE13      29.97R WCI   9
LAKEVILLE      CLOUDY    21  16  79 NE9       29.95R WCI  11
EDEN PRAIRIE   MOSUNNY   22  13  68 NE9       29.96R WCI  12
SOUTH ST PAUL  MOSUNNY   22  13  67 NE6       29.97R WCI  15
LAKE ELMO      PTSUNNY   19  12  73 NE8       29.98R WCI   9
$$
MNZ001>005-007-008-013>017-022>024-027-028-251600-
   Northwest Minnesota

CITY           SKY/WX    TMP DP  RH WIND       PRES   REMARKS
BEMIDJI        CLOUDY    15  10  78 E3        29.98R
HALLOCK        CLOUDY    10   5  79 CALM      30.04F
ROSEAU         CLOUDY    10   3  72 NE6       30.03R WCI   1
WARROAD        MOCLDY     9   1  72 E6        30.03R WCI  -1
THIEF RVR FALL PTCLDY    10   7  85 NE3       30.02S
CROOKSTON      FAIR      12   9  85 CALM      30.05R
FOSSTON        FAIR       9   7  92 CALM      30.00R
DETROIT LAKES  CLEAR     19  16  86 CALM      29.98R
MOORHEAD       CLEAR     19  18  93 N10       30.04R WCI   8
PARK RAPIDS    CLOUDY    21  13  71 NE6       29.97R WCI  13
MAHNOMEN       FAIR      13  10  87 N3        29.98R
$$
MNZ006-009>011-018-025>026-251600-
   North Central Minnesota

CITY           SKY/WX    TMP DP  RH WIND       PRES   REMARKS
BAUDETTE       CLOUDY     6  -2  69 E6        30.02R WCI  -4
FLAG ISLAND    MOCLDY     7   0  72 CALM      30.03S
INTL FALLS     CLOUDY     3  -4  72 E5        30.04R WCI  -6
WASKISH        CLOUDY    10   3  72 CALM      30.01R
BIG FORK       CLOUDY    12   5  73 E3        30.00R
LONGVILLE      CLOUDY    21  14  73 CALM      29.99R
GRAND RAPIDS   CLOUDY    18  10  73 S7        29.99R WCI   8
CRANE LAKE     FAIR       1  -6  71 CALM      30.08R
ORR            CLOUDY     7  -2  66 CALM      29.99R
COOK           CLOUDY     7   0  72 CALM      30.02S
WALKER         CLOUDY    17  10  75 CALM      29.98R
$$
MNZ012-019>021-037-251600-
   Northeast Minnesota

CITY           SKY/WX    TMP DP  RH WIND       PRES   REMARKS
DULUTH         LGT SNOW  18  12  77 E8        29.97R WCI   8
ELY            LGT SNOW   0  -6  78 NE3       30.02R
HIBBING        CLOUDY    14   6  70 E3        30.00R
EVELETH        FLURRIES  12   9  85 NE5       30.01R WCI   4
DULUTH HARBOR  CLOUDY    25  18  74 E15       30.03R WCI  12
TWO HARBORS    LGT SNOW  19  14  79 NE9       29.99R WCI   9
SILVER BAY     LGT SNOW  16  12  86 NE8       30.02R WCI   5
GRAND MARAIS     N/A      8  -6  52 NE7       30.12R WCI  -3
G MARAIS ARPRT PTSUNNY   -2 -11  65 N3        29.98R
$$
MNZ029>031-032-039>041-046>048-054>057-064-251600-
   West Central Minnesota

CITY           SKY/WX    TMP DP  RH WIND       PRES   REMARKS
FERGUS FALLS   PTCLDY    19  18  93 N5        30.02R WCI  13
WHEATON        CLOUDY    19  16  86 NW8       30.02R WCI   9
MORRIS         CLOUDY    25  21  86 NW9       29.96R WCI  15
ALEXANDRIA     CLOUDY    26  21  81 E5        29.96R WCI  20
ELBOW LAKE     CLOUDY    22  19  91 N8        29.97R WCI  12
WADENA         CLOUDY    21  18  86 NE3       29.97R
GLENWOOD       CLOUDY    25  21  86 CALM      29.97R
APPLETON       CLOUDY    28  27  93 N12       29.98R WCI  18
BENSON         CLOUDY    28  23  80 SE6       29.97R WCI  22
ORTONVILLE     CLOUDY    25  21  86 N8        29.97S WCI  16
MADISON        CLOUDY    32  30  93 NW15      29.98R WCI  22
WILLMAR        FAIR      27  21  80 NE7       29.96R WCI  19
$$
MNZ033>034-036-042>043-049>051-058-059-251600-
   Central Minnesota

CITY           SKY/WX    TMP DP  RH WIND       PRES   REMARKS
ST CLOUD       CLOUDY    20  13  74 NE9       29.98R WCI   9
SAUK CENTRE    CLOUDY    22  18  83 E9        29.97R WCI  12
PAYNESVILLE    PTCLDY    20  18  92 N5        29.96R WCI  13
AITKIN         MIX PCPN  21  14  73 NE6       29.98R WCI  14
PINE RIVER     CLOUDY    21  16  79 E3        30.02R
BRAINERD       CLOUDY    20  13  74 E6        29.99R WCI  12
STAPLES        CLOUDY    21  16  79 E5        29.98R WCI  15
LONG PRAIRIE   CLOUDY    21  18  86 NE9       29.97R WCI  11
LITTLE FALLS   PTCLDY    21  14  73 NE5       29.99R WCI  15
LITCHFIELD     MOSUNNY   23  19  86 NE9       29.96S WCI  13
BUFFALO        CLOUDY    21  15  78 NE12      29.99R WCI   9
MAPLE LAKE     MOSUNNY   21  16  81 NE9       29.98S WCI  11
$$
MNZ037-044-045-052-053-251600-
   East Central Minnesota

CITY           SKY/WX    TMP DP  RH WIND       PRES   REMARKS
PRINCETON      CLOUDY    21  12  68 E9        29.99R WCI  11
MORA           CLOUDY    19  12  73 E6        30.01R WCI  11
CAMBRIDGE      CLOUDY    21  12  68 NE3       29.98R
RUSH CITY      CLOUDY    20  13  74 E5        30.00R WCI  14
MOOSE LAKE     LGT SNOW  21  18  86 E6        29.97S WCI  14
HINCKLEY       CLOUDY    21  16  79 E9        29.99R WCI  11
CLOQUET        FLURRIES  19  14  79 NE8       29.98S WCI   9
MCGREGOR       CLOUDY    21  16  79 E9        29.99R WCI  11
$$
MNZ071>073-080-081-089-090-097-098-251600-
   Southwest Minnesota

CITY           SKY/WX    TMP DP  RH WIND       PRES   REMARKS
MONTEVIDEO     CLOUDY    30  30 100 E6        29.98R WCI  24
GRANITE FALLS  CLOUDY    30  28  90 CALM      29.98R
CANBY          CLOUDY    29  28  96 CALM      29.98R FOG
MARSHALL       CLOUDY    30  27  86 NE8       29.97R WCI  23
REDWOOD FALLS  CLOUDY    29  24  82 NE6       29.96R WCI  23
OLIVIA         MOSUNNY   28  25  86 NE10      29.95S WCI  19
PIPESTONE      CLOUDY    30  28  93 N10       29.92R FOG     WCI  21
WINDOM         CLOUDY    28  27  93 N12       29.93R WCI  18
WORTHINGTON    CLOUDY    28  27  93 N14       29.92R WCI  17
JACKSON        CLOUDY    30  28  93 N13       29.91R WCI  20
TRACY          CLOUDY    30  28  92 NE9       29.95R WCI  22
SLAYTON        CLOUDY    29  29  96 CALM      29.93R
$$
MNZ065>067-074>077-082>085-091>093-251600-
   South Central Minnesota

CITY           SKY/WX    TMP DP  RH WIND       PRES   REMARKS
MANKATO        CLOUDY    27  19  74 NE14      29.93R WCI  15
NEW ULM        PTSUNNY   25  19  80 N9        29.95R WCI  15
ST JAMES       PTSUNNY   28  25  86 N10       29.95R WCI  19
FAIRMONT       CLOUDY    30  25  80 N14       29.90R WCI  20
GLENCOE        SUNNY     23  19  83 N6G17     29.96R WCI  16
FARIBAULT      CLOUDY    25  19  80 N10       29.93R WCI  15
OWATONNA       CLOUDY    25  19  80 N14G23    29.91R WCI  13
WASECA         CLOUDY    28  23  80 NE17      29.93R WCI  16
ALBERT LEA     CLOUDY    28  27  93 NE13      29.88R WCI  18
$$
MNZ078>079-086>088-094>096-251600-
   Southeast Minnesota

CITY           SKY/WX    TMP DP  RH WIND       PRES   REMARKS
ROCHESTER      CLOUDY    27  23  85 N12       29.88R WCI  17
RED WING       CLOUDY    23  16  74 E7        29.95R WCI  15
STANTON        CLOUDY    23  18  78 N15       29.93R WCI  10
DODGE CENTER   CLOUDY    27  23  86 NE15      29.89R WCI  15
WINONA         CLOUDY    30  23  74 NE6       29.93R WCI  24
AUSTIN         CLOUDY    27  25  93 N12G20    29.87R WCI  16
PRESTON        CLOUDY    27  24  89 NE8G17    29.87R WCI  19
$$
ABBREVIATIONS USED IN REMARKS
   TC - TEMPERATURES IN CELSIUS
  WCI - WIND CHILL INDEX
   HX - HEAT INDEX
  VSB - VISIBILITY
$$


USA.gov is the U.S. government's official web portal to all federal, state and local government web resources and services.